period_start,C,m1,H,J0,J1,J2,J3,J4,J5,JA,JB,JC,JD,JJ,JK,JN,#
2017-08-18 00:00:45,0.00,0.25,0.00,25.48,29.35,31.84,13.76,43.32,1013.21,2024.44,3415.02,3017.79,3434.97,600.07,589.28,24.75,0000 0000 0000 0000 000000
2017-08-18 00:05:47,0.01,0.25,0.00,25.50,29.35,31.83,13.70,43.17,1013.20,2024.28,3414.33,3017.10,3434.30,599.93,589.04,24.80,0000 0000 0000 0000 000000
2017-08-18 00:10:48,0.01,0.25,0.00,25.50,29.35,31.82,13.68,43.22,1013.20,2024.20,3413.88,3017.00,3433.98,599.71,588.74,24.85,0000 0000 0000 0000 000000
2017-08-18 00:15:49,0.03,0.25,0.00,25.49,29.35,31.84,13.70,43.33,1013.20,2024.33,3413.33,3016.99,3433.73,599.92,589.01,24.90,0000 0000 0000 0000 000000
2017-08-18 00:20:51,0.05,0.25,0.00,25.51,29.35,31.84,13.67,43.31,1013.20,2024.50,3412.92,3016.47,3433.03,599.89,588.92,24.95,0000 0000 0000 0000 000000
2017-08-18 00:25:52,0.02,0.25,0.00,25.52,29.36,31.83,13.68,43.26,1013.20,2024.47,3412.25,3016.05,3432.90,599.85,588.98,25.00,0000 0000 0000 0000 000000
2017-08-18 00:30:53,0.01,0.25,0.00,25.52,29.37,31.84,13.69,43.43,1013.20,2024.36,3411.84,3015.99,3432.10,600.00,588.96,25.05,0000 0000 0000 0000 000000
2017-08-18 00:35:55,0.02,0.26,0.00,25.52,29.37,31.84,13.74,43.29,1013.19,2024.34,3411.12,3015.72,3431.96,600.30,589.16,25.11,0000 0000 0000 0000 000000
2017-08-18 00:40:56,0.03,0.26,0.00,25.53,29.37,31.84,13.73,43.41,1013.17,2024.30,3410.61,3015.10,3431.28,599.98,588.87,25.16,0000 0000 0000 0000 000000
2017-08-18 00:45:57,0.01,0.26,0.00,25.55,29.37,31.83,13.75,43.43,1013.18,2024.26,3409.97,3014.99,3430.97,599.96,588.89,25.21,0000 0000 0000 0000 000000
2017-08-18 00:50:58,0.03,0.26,0.00,25.55,29.37,31.83,13.77,43.31,1013.16,2024.23,3409.12,3014.59,3430.19,600.02,589.02,25.26,0000 0000 0000 0000 000000
2017-08-18 00:56:00,0.03,0.26,0.00,25.55,29.37,31.83,13.73,43.35,1013.17,2024.25,3408.45,3014.03,3429.85,600.20,589.03,25.31,0000 0000 0000 0000 000000
2017-08-18 01:01:01,0.03,0.26,0.00,25.57,29.37,31.85,13.69,43.04,1013.16,2024.38,3407.80,3013.99,3429.07,599.77,588.79,25.36,0000 0000 0000 0000 000000
2017-08-18 01:06:03,0.04,0.26,0.00,25.60,29.39,31.84,13.70,43.37,1012.93,2024.34,3407.01,3013.49,3428.69,599.88,588.67,25.41,0000 0000 0000 0000 000000
2017-08-18 01:11:04,0.01,0.27,0.00,25.61,29.40,31.84,13.69,43.42,1012.73,2024.22,3406.27,3013.02,3428.03,600.09,588.61,25.46,0000 0000 0000 0000 000000
2017-08-18 01:16:05,0.01,0.27,0.00,25.62,29.40,31.85,13.68,43.33,1012.73,2024.25,3405.82,3012.95,3427.62,599.88,588.44,25.51,0000 0000 0000 0000 000000
2017-08-18 01:21:06,0.05,0.27,0.00,25.64,29.40,31.86,13.68,43.33,1012.72,2024.22,3405.01,3012.22,3427.01,599.92,588.67,25.56,0000 0000 0000 0000 000000
2017-08-18 01:26:07,0.03,0.27,0.00,25.65,29.40,31.86,13.65,43.27,1012.73,2024.20,3404.15,3011.99,3426.33,599.75,588.27,25.61,0000 0000 0000 0000 000000
2017-08-18 01:31:09,0.03,0.27,0.00,25.67,29.42,31.86,13.68,43.27,1012.73,2024.07,3403.32,3011.47,3425.67,599.84,588.36,25.66,0000 0000 0000 0000 000000
2017-08-18 01:36:10,0.03,0.27,0.00,25.69,29.42,31.87,13.72,43.38,1012.72,2024.09,3402.57,3011.01,3425.02,600.01,588.37,25.71,0000 0000 0000 0000 000000
2017-08-18 01:41:11,0.03,0.27,0.00,25.70,29.42,31.87,13.65,43.30,1012.71,2024.07,3401.67,3010.76,3424.36,599.71,588.16,25.76,0000 0000 0000 0000 000000
2017-08-18 01:46:13,0.03,0.28,0.00,25.72,29.44,31.88,13.69,43.33,1012.71,2024.09,3401.00,3010.08,3423.96,599.84,588.22,25.81,0000 0000 0000 0000 000000
2017-08-18 01:51:14,0.03,0.28,0.00,25.74,29.45,31.89,13.60,43.32,1012.71,2024.04,3400.25,3009.95,3423.21,599.69,588.02,25.86,0000 0000 0000 0000 000000
2017-08-18 01:56:15,0.04,0.28,0.00,25.77,29.45,31.89,13.72,43.39,1012.71,2024.02,3399.54,3009.23,3422.68,600.50,588.64,25.91,0000 0000 0000 0000 000000
2017-08-18 02:01:16,0.01,0.28,0.00,25.81,29.47,31.89,13.70,43.35,1012.71,2024.01,3398.75,3008.99,3421.99,600.10,588.30,25.96,0000 0000 0000 0000 000000
2017-08-18 02:06:18,0.04,0.28,0.00,25.83,29.47,31.90,13.69,43.29,1012.71,2024.01,3397.94,3008.44,3421.22,600.08,588.20,26.01,0000 0000 0000 0000 000000
2017-08-18 02:11:19,0.02,0.28,0.00,25.87,29.50,31.91,13.70,43.40,1012.71,2024.01,3397.13,3008.01,3420.75,600.15,588.13,26.06,0000 0000 0000 0000 000000
2017-08-18 02:16:20,0.03,0.29,0.00,25.91,29.50,31.92,13.69,43.36,1012.70,2024.00,3396.37,3007.73,3419.94,600.10,587.98,26.11,0000 0000 0000 0000 000000
2017-08-18 02:21:22,0.03,0.29,0.00,25.94,29.52,31.93,13.67,43.32,1012.70,2024.00,3395.40,3007.03,3419.17,599.82,587.79,26.16,0000 0000 0000 0000 000000
2017-08-18 02:26:23,0.04,0.29,0.00,25.97,29.54,31.95,13.69,43.36,1012.71,2024.00,3394.63,3006.62,3418.56,600.27,588.10,26.21,0000 0000 0000 0000 000000
2017-08-18 02:31:24,0.03,0.29,0.00,26.01,29.56,31.97,13.66,43.31,1012.71,2024.00,3393.60,3006.02,3417.72,599.98,587.84,26.26,0000 0000 0000 0000 000000
2017-08-18 02:36:26,0.03,0.29,0.00,26.05,29.57,31.98,13.63,43.36,1012.69,2023.99,3392.85,3005.51,3417.01,599.95,587.67,26.31,0000 0000 0000 0000 000000
2017-08-18 02:41:27,0.02,0.30,0.00,26.09,29.60,32.00,13.61,43.31,1012.63,2023.97,3392.03,3005.00,3416.35,599.86,587.32,26.36,0000 0000 0000 0000 000000
2017-08-18 02:46:28,0.03,0.30,0.00,26.11,29.62,32.02,13.65,43.25,1012.51,2023.96,3391.15,3004.60,3415.81,599.91,587.36,26.41,0000 0000 0000 0000 000000
2017-08-18 02:51:29,0.02,0.30,0.00,26.15,29.64,32.04,13.62,43.30,1012.43,2023.87,3390.54,3004.01,3415.01,599.50,586.84,26.46,0000 0000 0000 0000 000000
2017-08-18 02:56:31,0.01,0.30,0.00,26.17,29.66,32.06,13.55,43.35,1012.46,2023.54,3389.53,3003.29,3414.10,599.46,586.73,26.51,0000 0000 0000 0000 000000
2017-08-18 03:01:32,0.01,0.30,0.00,26.21,29.69,32.08,13.61,43.41,1012.63,2023.15,3388.77,3002.83,3413.46,599.94,587.28,26.56,0000 0000 0000 0000 000000
2017-08-18 03:06:34,0.04,0.30,0.00,26.23,29.71,32.11,13.61,43.33,1012.59,2023.02,3387.74,3002.06,3412.52,600.19,587.36,26.61,0000 0000 0000 0000 000000
2017-08-18 03:11:35,0.04,0.30,0.00,26.27,29.73,32.14,13.63,43.33,1012.51,2023.00,3386.73,3001.53,3411.75,600.10,587.36,26.66,0000 0000 0000 0000 000000
2017-08-18 03:16:36,0.02,0.31,0.00,26.29,29.76,32.16,13.74,43.32,1012.44,2022.99,3385.92,3000.98,3410.99,600.47,587.30,26.71,0000 0000 0000 0000 000000
2017-08-18 03:21:37,0.05,0.31,0.00,26.30,29.77,32.19,13.66,43.33,1012.51,2022.99,3385.02,3000.26,3410.15,600.52,587.57,26.76,0000 0000 0000 0000 000000
2017-08-18 03:26:39,0.03,0.31,0.00,26.33,29.80,32.21,13.71,43.31,1012.53,2022.96,3384.08,2999.88,3409.46,600.37,587.48,26.81,0000 0000 0000 0000 000000
2017-08-18 03:31:40,0.04,0.31,0.00,26.36,29.82,32.24,13.62,43.23,1012.56,2022.95,3383.13,2999.14,3408.75,599.91,586.96,26.86,0000 0000 0000 0000 000000
2017-08-18 03:36:42,0.02,0.31,0.00,26.38,29.85,32.26,13.70,43.23,1012.50,2022.73,3382.13,2998.63,3407.88,600.03,586.96,26.91,0000 0000 0000 0000 000000
2017-08-18 03:41:43,-0.00,0.31,0.00,26.41,29.87,32.29,13.64,43.35,1012.46,2022.20,3381.16,2997.97,3407.01,599.75,586.64,26.96,0000 0000 0000 0000 000000
2017-08-18 03:46:44,0.04,0.31,0.00,26.42,29.89,32.31,13.63,43.14,1012.33,2022.06,3380.08,2997.23,3406.12,600.17,587.00,27.01,0000 0000 0000 0000 000000
2017-08-18 03:51:46,0.03,0.32,0.00,26.45,29.91,32.34,13.61,43.29,1012.26,2022.01,3379.19,2996.79,3405.34,600.21,586.79,27.06,0000 0000 0000 0000 000000
2017-08-18 03:56:47,0.04,0.32,0.00,26.48,29.94,32.36,13.58,43.13,1012.24,2022.00,3378.10,2996.05,3404.55,599.69,586.18,27.11,0000 0000 0000 0000 000000
2017-08-18 04:01:48,0.04,0.32,0.00,26.50,29.96,32.39,13.65,43.22,1012.23,2022.00,3377.09,2995.43,3403.73,599.87,586.44,27.16,0000 0000 0000 0000 000000
2017-08-18 04:06:49,0.03,0.32,0.00,26.53,29.99,32.42,13.73,43.37,1012.23,2022.00,3376.09,2994.88,3402.84,600.57,587.01,27.21,0000 0000 0000 0000 000000
2017-08-18 04:11:51,0.04,0.33,0.00,26.57,30.01,32.43,13.59,43.18,1012.22,2021.97,3375.06,2994.08,3402.00,599.97,586.36,27.26,0000 0000 0000 0000 000000
2017-08-18 04:16:52,0.04,0.33,0.00,26.60,30.04,32.46,13.61,43.19,1012.22,2021.93,3374.10,2993.46,3401.10,599.72,586.08,27.31,0000 0000 0000 0000 000000
2017-08-18 04:21:53,-0.00,0.33,0.00,26.63,30.06,32.48,13.58,43.19,1012.22,2021.58,3373.10,2992.92,3400.28,599.82,586.17,27.36,0000 0000 0000 0000 000000
2017-08-18 04:26:55,0.04,0.33,0.00,26.66,30.10,32.50,13.63,43.32,1012.22,2021.38,3372.06,2992.10,3399.40,600.04,586.22,27.41,0000 0000 0000 0000 000000
2017-08-18 04:31:56,0.01,0.33,0.00,26.71,30.12,32.54,13.60,43.24,1012.22,2021.15,3371.13,2991.61,3398.59,600.39,586.44,27.46,0000 0000 0000 0000 000000
2017-08-18 04:36:57,0.04,0.33,0.00,26.73,30.15,32.56,13.63,43.29,1012.22,2021.02,3369.93,2990.89,3397.68,599.86,585.95,27.51,0000 0000 0000 0000 000000
2017-08-18 04:41:59,0.04,0.34,0.00,26.77,30.18,32.58,13.57,43.31,1012.22,2021.00,3368.89,2990.09,3396.77,599.39,585.46,27.56,0000 0000 0000 0000 000000
2017-08-18 04:47:00,0.05,0.34,0.00,26.81,30.21,32.60,13.61,43.22,1012.22,2021.00,3367.86,2989.42,3395.92,600.17,586.11,27.61,0000 0000 0000 0000 000000
2017-08-18 04:52:01,0.04,0.34,0.00,26.84,30.24,32.63,13.62,43.27,1012.22,2020.99,3366.77,2988.84,3394.98,599.47,585.36,27.66,0000 0000 0000 0000 000000
2017-08-18 04:57:03,0.04,0.34,0.00,26.87,30.27,32.67,13.64,43.15,1012.21,2020.95,3365.72,2988.05,3394.04,600.13,585.89,27.71,0000 0000 0000 0000 000000
2017-08-18 05:02:05,0.02,0.34,0.00,26.90,30.30,32.70,13.61,43.17,1012.20,2020.67,3364.50,2987.32,3393.11,600.02,585.80,27.76,0000 0000 0000 0000 000000
2017-08-18 05:07:06,0.01,0.34,0.00,26.94,30.33,32.74,13.64,43.06,1012.18,2020.16,3363.33,2986.65,3392.10,600.27,585.95,27.81,0000 0000 0000 0000 000000
2017-08-18 05:12:07,0.03,0.35,0.00,26.96,30.36,32.76,13.55,43.15,1012.09,2020.02,3362.16,2985.96,3391.12,599.63,585.16,27.86,0000 0000 0000 0000 000000
2017-08-18 05:17:09,0.05,0.35,0.00,26.97,30.39,32.79,13.61,43.06,1012.12,2020.00,3361.30,2985.20,3390.54,599.96,585.58,27.91,0000 0000 0000 0000 000000
2017-08-18 05:22:10,0.05,0.35,0.00,27.00,30.42,32.82,13.57,43.02,1012.11,2020.00,3360.14,2984.56,3389.59,599.72,585.36,27.96,0000 0000 0000 0000 000000
2017-08-18 05:27:11,0.04,0.35,0.00,27.03,30.45,32.85,13.65,43.04,1011.97,2020.00,3359.11,2983.94,3388.66,600.42,585.60,28.02,0000 0000 0000 0000 000000
2017-08-18 05:32:13,0.04,0.36,0.00,27.06,30.48,32.88,13.64,43.09,1011.83,2019.97,3358.06,2983.13,3387.83,599.92,585.04,28.07,0000 0000 0000 0000 000000
2017-08-18 05:37:14,-0.01,0.36,0.00,27.09,30.51,32.91,13.61,43.10,1012.03,2019.63,3357.23,2982.42,3387.02,600.16,585.37,28.12,0000 0000 0000 0000 000000
2017-08-18 05:42:15,0.00,0.36,0.00,27.12,30.54,32.94,13.62,43.11,1011.98,2019.04,3356.79,2981.87,3386.27,600.57,585.67,28.17,0000 0000 0000 0000 000000
2017-08-18 05:47:16,0.06,0.36,0.00,27.14,30.57,32.97,13.56,43.12,1011.95,2019.00,3355.36,2981.06,3385.37,600.07,585.24,28.22,0000 0000 0000 0000 000000
2017-08-18 05:52:17,0.05,0.36,0.00,27.17,30.60,33.01,13.62,43.09,1012.04,2019.00,3354.06,2980.23,3384.26,600.11,585.26,28.27,0000 0000 0000 0000 000000
2017-08-18 05:57:19,0.04,0.36,0.00,27.19,30.63,33.03,13.55,43.01,1012.08,2019.00,3353.23,2979.68,3383.59,599.82,584.98,28.32,0000 0000 0000 0000 000000
2017-08-18 06:02:21,0.04,0.37,0.00,27.21,30.66,33.06,13.56,42.93,1012.14,2018.98,3352.25,2978.99,3382.67,600.29,585.33,28.37,0000 0000 0000 0000 000000
2017-08-18 06:07:22,0.02,0.37,0.00,27.23,30.68,33.08,13.59,43.16,1012.17,2018.80,3351.40,2978.17,3381.95,599.75,584.89,28.42,0000 0000 0000 0000 000000
2017-08-18 06:12:23,0.01,0.37,0.00,27.25,30.71,33.11,13.62,43.13,1012.13,2018.28,3350.46,2977.42,3381.04,600.04,585.15,28.47,0000 0000 0000 0000 000000
2017-08-18 06:17:24,0.03,0.37,0.00,27.27,30.73,33.14,13.61,43.15,1012.20,2018.03,3349.46,2976.81,3380.10,600.12,585.09,28.52,0000 0000 0000 0000 000000
2017-08-18 06:22:26,0.05,0.37,0.00,27.29,30.76,33.16,13.51,43.11,1012.21,2018.01,3348.32,2976.05,3379.22,599.75,584.65,28.57,0000 0000 0000 0000 000000
2017-08-18 06:27:27,0.05,0.37,0.00,27.31,30.78,33.19,13.57,43.04,1012.22,2018.00,3347.25,2975.35,3378.35,600.11,585.14,28.62,0000 0000 0000 0000 000000
2017-08-18 06:32:28,0.05,0.38,0.00,27.32,30.81,33.22,13.59,43.04,1012.22,2017.99,3346.20,2974.58,3377.40,599.96,584.80,28.67,0000 0000 0000 0000 000000
2017-08-18 06:37:30,0.04,0.38,0.00,27.33,30.83,33.23,13.55,43.23,1012.24,2017.99,3345.08,2973.94,3376.55,599.23,584.24,28.72,0000 0000 0000 0000 000000
2017-08-18 06:42:31,0.05,0.38,0.00,27.35,30.86,33.26,13.59,43.15,1012.24,2017.96,3343.95,2973.10,3375.70,599.73,584.58,28.77,0000 0000 0000 0000 000000
2017-08-18 06:47:33,0.05,0.38,0.00,27.37,30.88,33.29,13.62,43.08,1012.26,2017.88,3342.82,2972.45,3374.78,600.01,584.84,28.82,0000 0000 0000 0000 000000
2017-08-18 06:52:34,0.03,0.39,0.00,27.38,30.90,33.31,13.59,43.19,1012.34,2017.85,3341.72,2971.87,3373.91,600.04,585.09,28.87,0000 0000 0000 0000 000000
2017-08-18 06:57:35,0.02,0.39,0.00,27.40,30.92,33.34,13.63,43.17,1012.34,2017.49,3340.51,2971.04,3372.95,599.98,584.82,28.92,0000 0000 0000 0000 000000
2017-08-18 07:02:37,0.03,0.39,0.00,27.41,30.95,33.35,13.62,43.19,1012.50,2017.17,3339.24,2970.27,3372.01,599.94,585.07,28.97,0000 0000 0000 0000 000000
2017-08-18 07:07:38,0.05,0.39,0.00,27.42,30.96,33.38,13.65,43.28,1012.67,2017.13,3338.03,2969.67,3371.06,600.20,585.13,29.02,0000 0000 0000 0000 000000
2017-08-18 07:12:39,0.04,0.39,0.00,27.42,30.98,33.40,13.60,43.10,1012.71,2017.07,3336.73,2968.96,3370.07,600.22,585.16,29.07,0000 0000 0000 0000 000000
2017-08-18 07:17:41,0.05,0.40,0.00,27.45,31.00,33.42,13.61,43.14,1012.71,2017.02,3335.50,2968.13,3369.07,600.11,585.04,29.12,0000 0000 0000 0000 000000
2017-08-18 07:22:42,0.06,0.40,0.00,27.47,31.02,33.44,13.60,43.10,1012.71,2017.01,3334.14,2967.40,3367.99,600.05,584.98,29.17,0000 0000 0000 0000 000000
2017-08-18 07:27:43,0.05,0.40,0.00,27.47,31.04,33.46,13.64,43.22,1012.70,2017.00,3332.80,2966.72,3367.01,600.56,585.43,29.22,0000 0000 0000 0000 000000
2017-08-18 07:32:44,0.05,0.40,0.00,27.49,31.06,33.47,13.56,43.02,1012.68,2017.00,3331.52,2965.97,3366.06,599.62,584.54,29.27,0000 0000 0000 0000 000000
2017-08-18 07:37:46,0.05,0.41,0.00,27.50,31.07,33.50,13.63,43.08,1012.68,2017.00,3330.40,2965.14,3365.06,599.87,584.74,29.32,0000 0000 0000 0000 000000
2017-08-18 07:42:47,0.05,0.41,0.00,27.51,31.09,33.50,13.50,43.17,1012.70,2017.00,3329.07,2964.43,3364.08,599.89,584.73,29.37,0000 0000 0000 0000 000000
2017-08-18 07:47:48,0.05,0.41,0.00,27.52,31.10,33.53,13.62,43.17,1012.71,2017.00,3327.89,2963.72,3363.14,599.86,584.67,29.42,0000 0000 0000 0000 000000
2017-08-18 07:52:50,0.04,0.41,0.00,27.54,31.12,33.54,13.62,43.07,1012.71,2016.99,3326.85,2962.97,3362.21,600.14,585.00,29.47,0000 0000 0000 0000 000000
2017-08-18 07:57:51,0.05,0.42,0.00,27.55,31.14,33.55,13.57,43.09,1012.71,2016.97,3325.85,2962.14,3361.38,600.26,584.91,29.52,0000 0000 0000 0000 000000
2017-08-18 08:02:52,0.05,0.42,0.00,27.55,31.15,33.57,13.57,43.08,1012.71,2016.93,3324.78,2961.40,3360.40,599.49,584.24,29.57,0000 0000 0000 0000 000000
2017-08-18 08:07:54,0.01,0.42,0.00,27.57,31.17,33.58,13.57,43.09,1012.71,2016.66,3323.64,2960.66,3359.47,600.02,584.80,29.62,0000 0000 0000 0000 000000
2017-08-18 08:12:55,0.05,0.42,0.00,27.57,31.18,33.59,13.60,43.08,1012.71,2016.44,3322.49,2959.95,3358.46,600.11,584.72,29.67,0000 0000 0000 0000 000000
2017-08-18 08:17:56,0.02,0.43,0.00,27.58,31.20,33.61,13.61,43.14,1012.73,2016.31,3321.28,2959.11,3357.48,600.27,584.95,29.72,0000 0000 0000 0000 000000
2017-08-18 08:22:57,0.05,0.43,0.00,27.60,31.21,33.63,13.52,43.14,1012.77,2016.19,3320.10,2958.38,3356.56,599.69,584.50,29.77,0000 0000 0000 0000 000000
2017-08-18 08:27:59,0.06,0.43,0.00,27.60,31.22,33.64,13.59,43.13,1012.94,2016.18,3318.77,2957.62,3355.58,600.01,584.79,29.82,0000 0000 0000 0000 000000
2017-08-18 08:33:00,0.04,0.43,0.00,27.62,31.25,33.65,13.59,43.19,1013.02,2016.08,3317.55,2956.85,3354.57,600.03,584.88,29.87,0000 0000 0000 0000 000000
2017-08-18 08:38:02,0.06,0.44,0.00,27.62,31.26,33.67,13.68,43.04,1013.05,2016.07,3316.17,2956.03,3353.54,600.23,585.12,29.92,0000 0000 0000 0000 000000
2017-08-18 08:43:03,0.06,0.44,0.00,27.62,31.27,33.69,13.56,43.08,1013.00,2016.07,3314.78,2955.27,3352.45,599.93,584.62,29.97,0000 0000 0000 0000 000000
2017-08-18 08:48:04,0.05,0.44,0.00,27.65,31.29,33.70,13.62,42.98,1012.99,2016.03,3313.62,2954.48,3351.50,600.00,584.79,30.02,0000 0000 0000 0000 000000
2017-08-18 08:53:05,0.04,0.44,0.00,27.66,31.30,33.72,13.65,43.11,1012.82,2016.01,3312.48,2953.86,3350.62,600.17,584.81,30.07,0000 0000 0000 0000 000000
2017-08-18 08:58:07,0.05,0.45,0.00,27.66,31.31,33.73,13.62,42.96,1012.80,2016.00,3311.31,2953.02,3349.60,600.25,584.62,30.12,0000 0000 0000 0000 000000
2017-08-18 09:03:08,0.05,0.45,0.00,27.67,31.32,33.74,13.70,43.06,1012.77,2016.00,3310.07,2952.22,3348.62,600.10,584.68,30.17,0000 0000 0000 0000 000000
2017-08-18 09:08:09,0.05,0.45,0.00,27.68,31.34,33.76,13.64,42.98,1012.83,2016.00,3308.89,2951.53,3347.69,600.25,584.89,30.22,0000 0000 0000 0000 000000
2017-08-18 09:13:11,0.04,0.45,0.00,27.69,31.35,33.77,13.50,42.96,1013.04,2016.00,3307.75,2950.85,3346.83,599.36,584.12,30.27,0000 0000 0000 0000 000000
2017-08-18 09:18:12,0.05,0.46,0.00,27.70,31.36,33.78,13.59,42.92,1013.15,2016.00,3306.74,2950.04,3345.96,599.92,584.76,30.32,0000 0000 0000 0000 000000
2017-08-18 09:23:13,0.06,0.46,0.00,27.71,31.37,33.80,13.57,42.96,1013.20,2016.00,3305.63,2949.25,3345.03,599.96,584.66,30.37,0000 0000 0000 0000 000000
2017-08-18 09:28:15,0.06,0.46,0.00,27.71,31.37,33.81,13.51,43.00,1013.20,2016.00,3304.35,2948.41,3344.01,599.58,584.48,30.42,0000 0000 0000 0000 000000
2017-08-18 09:33:16,0.05,0.47,0.00,27.72,31.40,33.83,13.62,43.13,1013.20,2016.00,3303.27,2947.67,3343.02,600.11,584.80,30.47,0000 0000 0000 0000 000000
2017-08-18 09:38:17,0.04,0.47,0.00,27.72,31.40,33.83,13.64,43.11,1013.21,2015.99,3302.05,2946.93,3342.06,600.56,585.26,30.52,0000 0000 0000 0000 000000
2017-08-18 09:43:19,0.12,0.47,0.00,27.73,31.42,33.85,13.48,43.04,1013.21,2015.99,3300.12,2945.58,3340.43,599.63,584.33,30.57,0000 0000 0000 0000 000000
2017-08-18 09:48:20,0.16,0.48,0.00,27.74,31.42,33.85,13.61,43.02,1013.27,2015.99,3296.91,2943.54,3337.97,600.27,584.99,30.62,0000 0000 0000 0000 000000
2017-08-18 09:53:21,0.35,0.50,0.00,27.75,31.44,33.87,13.60,43.03,1013.30,2015.99,3289.90,2938.89,3332.58,600.21,584.97,30.67,0000 0000 0000 0000 000000
2017-08-18 09:58:22,0.61,0.52,0.00,27.75,31.45,33.88,13.57,43.02,1013.32,2015.98,3278.98,2931.22,3324.14,599.86,584.59,30.72,0000 0000 0000 0000 000000
2017-08-18 10:03:24,0.15,0.54,0.00,27.75,31.46,33.89,13.51,42.92,1013.31,2015.98,3272.65,2926.90,3319.38,599.97,584.67,30.77,0000 0000 0000 0000 000000
2017-08-18 10:08:25,0.18,0.54,0.00,27.75,31.47,33.90,13.64,43.01,1013.38,2015.95,3269.47,2924.71,3316.76,600.49,585.28,30.82,0000 0000 0000 0000 000000
2017-08-18 10:13:26,0.48,0.56,0.00,27.75,31.47,33.91,13.59,42.93,1013.54,2015.93,3261.12,2918.58,3309.89,599.94,584.68,30.87,0000 0000 0000 0000 000000
2017-08-18 10:18:27,0.51,0.59,0.00,27.76,31.49,33.92,13.57,42.92,1013.66,2015.80,3250.32,2910.57,3300.99,599.71,584.57,30.92,0000 0000 0000 0000 000000
2017-08-18 10:23:29,0.46,0.61,0.00,27.75,31.50,33.93,13.56,43.07,1013.65,2015.43,3240.78,2903.52,3293.23,599.72,584.70,30.97,0000 0000 0000 0000 000000
2017-08-18 10:28:30,0.17,0.63,0.00,27.76,31.50,33.94,13.58,43.03,1013.68,2015.34,3235.42,2899.39,3288.78,599.91,584.84,31.02,0000 0000 0000 0000 000000
2017-08-18 10:33:31,0.00,0.63,0.00,27.77,31.52,33.96,13.57,42.98,1013.68,2015.13,3234.56,2898.88,3288.00,599.50,584.36,31.07,0000 0000 0000 0000 000000
2017-08-18 10:38:33,0.05,0.63,0.00,27.77,31.52,33.96,13.58,43.07,1013.68,2015.07,3233.60,2898.01,3287.16,599.92,584.85,31.12,0000 0000 0000 0000 000000
2017-08-18 10:43:34,0.07,0.64,0.00,27.77,31.52,33.97,13.59,43.02,1013.69,2015.08,3232.44,2897.01,3286.02,600.01,584.91,31.18,0000 0000 0000 0000 000000
2017-08-18 10:48:35,0.66,0.66,0.00,27.77,31.53,33.98,13.53,42.90,1013.69,2015.05,3221.71,2889.87,3278.00,599.73,584.77,31.23,0000 0000 0000 0000 000000
2017-08-18 10:53:36,0.29,0.68,0.00,27.77,31.55,33.99,13.55,42.95,1013.70,2015.01,3213.46,2884.85,3272.52,599.56,584.31,31.28,0000 0000 0000 0000 000000
2017-08-18 10:58:38,0.10,0.69,0.00,27.75,31.55,33.99,13.69,43.00,1013.70,2015.00,3209.16,2882.76,3270.21,600.43,585.35,31.33,0000 0000 0000 0000 000000
2017-08-18 11:03:39,0.08,0.69,0.00,27.75,31.55,33.99,13.64,42.99,1013.71,2015.00,3207.14,2881.35,3268.81,599.96,584.88,31.38,0000 0000 0000 0000 000000
2017-08-18 11:08:40,0.02,0.70,0.00,27.76,31.55,34.00,13.61,42.93,1013.70,2015.00,3206.54,2881.00,3268.05,599.87,584.80,31.43,0000 0000 0000 0000 000000
2017-08-18 11:13:42,0.02,0.70,0.00,27.76,31.56,34.01,13.65,42.94,1013.71,2014.99,3205.99,2880.62,3267.89,599.69,584.61,31.48,0000 0000 0000 0000 000000
2017-08-18 11:18:43,0.04,0.70,0.00,27.75,31.57,34.01,13.62,43.02,1013.70,2014.99,3205.17,2880.00,3267.06,599.92,584.88,31.53,0000 0000 0000 0000 000000
2017-08-18 11:23:44,0.01,0.70,0.00,27.75,31.57,34.00,13.61,42.89,1013.77,2014.99,3204.94,2879.76,3266.84,600.13,585.13,31.58,0000 0000 0000 0000 000000
2017-08-18 11:28:45,0.04,0.70,0.00,27.75,31.57,34.03,13.55,42.95,1013.73,2014.99,3204.16,2879.06,3266.08,599.74,584.61,31.63,0000 0000 0000 0000 000000
2017-08-18 11:33:46,0.00,0.70,0.00,27.75,31.57,34.03,13.57,42.98,1013.84,2014.98,3203.99,2879.00,3265.96,599.76,584.93,31.68,0000 0000 0000 0000 000000
2017-08-18 11:38:48,0.05,0.70,0.00,27.74,31.57,34.03,13.60,42.98,1013.82,2014.97,3203.26,2878.45,3265.30,599.85,584.89,31.73,0000 0000 0000 0000 000000
2017-08-18 11:43:49,0.10,0.71,0.00,27.73,31.57,34.03,13.60,42.94,1013.71,2014.98,3201.22,2877.15,3263.88,600.48,585.59,31.78,0000 0000 0000 0000 000000
2017-08-18 11:48:50,0.09,0.71,0.00,27.72,31.58,34.04,13.61,42.90,1013.72,2014.96,3198.90,2875.74,3262.52,600.01,584.96,31.83,0000 0000 0000 0000 000000
2017-08-18 11:53:52,0.09,0.72,0.00,27.72,31.58,34.05,13.60,42.92,1013.81,2014.94,3196.86,2874.48,3261.05,599.98,585.18,31.88,0000 0000 0000 0000 000000
2017-08-18 11:58:53,0.10,0.73,0.00,27.72,31.58,34.04,13.63,43.00,1013.99,2014.91,3194.31,2872.89,3259.45,600.03,585.20,31.93,0000 0000 0000 0000 000000
2017-08-18 12:03:54,0.07,0.73,0.00,27.72,31.58,34.04,13.59,42.95,1014.08,2014.88,3192.29,2871.85,3258.17,600.09,585.31,31.98,0000 0000 0000 0000 000000
2017-08-18 12:08:55,0.04,0.73,0.00,27.72,31.58,34.04,13.55,42.98,1014.07,2014.84,3191.07,2871.04,3257.33,599.81,585.08,32.03,0000 0000 0000 0000 000000
2017-08-18 12:13:57,0.02,0.73,0.00,27.72,31.58,34.03,13.63,42.98,1014.14,2014.74,3190.33,2870.70,3256.99,600.01,585.36,32.08,0000 0000 0000 0000 000000
2017-08-18 12:18:58,0.04,0.74,0.00,27.71,31.58,34.04,13.65,43.04,1014.15,2014.70,3189.58,2870.02,3256.22,600.23,585.49,32.13,0000 0000 0000 0000 000000
2017-08-18 12:23:59,0.05,0.74,0.00,27.70,31.58,34.04,13.60,42.91,1014.15,2014.60,3188.56,2869.32,3255.72,600.05,585.36,32.18,0000 0000 0000 0000 000000
2017-08-18 12:29:00,0.04,0.74,0.00,27.70,31.58,34.04,13.60,43.03,1014.12,2014.63,3187.30,2868.77,3254.82,600.14,585.37,32.23,0000 0000 0000 0000 000000
2017-08-18 12:34:02,0.07,0.74,0.00,27.70,31.57,34.04,13.65,42.92,1014.06,2014.59,3185.14,2867.91,3253.77,599.82,585.10,32.28,0000 0000 0000 0000 000000
2017-08-18 12:39:03,0.01,0.75,0.00,27.68,31.57,34.05,13.59,43.01,1014.01,2014.58,3184.87,2867.33,3253.11,599.59,584.93,32.33,0000 0000 0000 0000 000000
2017-08-18 12:44:04,0.03,0.75,0.00,27.67,31.57,34.04,13.69,42.93,1014.07,2014.69,3184.08,2867.02,3253.00,600.39,585.75,32.38,0000 0000 0000 0000 000000
2017-08-18 12:49:05,0.01,0.75,0.00,27.67,31.57,34.04,13.61,42.90,1014.15,2014.75,3183.95,2867.00,3252.94,600.14,585.53,32.43,0000 0000 0000 0000 000000
2017-08-18 12:54:06,0.03,0.75,0.00,27.66,31.57,34.04,13.69,43.04,1014.12,2014.87,3183.38,2866.99,3252.65,599.95,585.35,32.48,0000 0000 0000 0000 000000